sat.trackr.live / text

‹ back to catalog

NIGERIASAT-X

NORAD 37790 · 2011-044C

PAYLOAD ACTIVE UNKNOWN

§ Identity

Operator
Country
NIG
Launch date
2011-08-17
Launch site
DLS
Launch vehicle
Mass (kg)
RCS (m²)
0.21

External: N2YO · Heavens-Above · Gunter

§ Orbital elements

Epoch: 2026-05-24T21:58:36.314112Z

Period
98.57 min
Inclination
97.8535°
Eccentricity
0.0013444
Mean motion
14.60846194 rev/d
Perigee alt
680.9 km
Apogee alt
699.9 km
Semi-major
7,068.6 km
B*
6.9289e-5
RAAN
130.2698°
Arg perigee
52.3009°
Mean anomaly
307.9409°
Rev number
78,677

§ Raw data

NIGERIASAT-X1 37790U 11044C   26144.91569808  .00000295  00000+0  69289-4 0  99922 37790  97.8535 130.2698 0013444  52.3009 307.9409 14.60846194786779

JSON: /api/v1/satellites/37790 · /tle

For live sub-satellite position, see the globe view (requires WebGL).

§ Visibility from observer

Set your observer location to see the next 7 days of passes ≥ 10°. The values pass through the URL so the page stays shareable.

No JS? Fill the form by hand. The geolocation button needs JavaScript.